#datetime,building,power
2023-05-06T00:00:00,mcc,39.24
2023-05-06T00:01:00,mcc,39.05
2023-05-06T00:02:00,mcc,36.30
2023-05-06T00:03:00,mcc,35.50
2023-05-06T00:04:00,mcc,35.48
2023-05-06T00:05:00,mcc,35.36
2023-05-06T00:06:00,mcc,34.53
2023-05-06T00:07:00,mcc,34.31
2023-05-06T00:08:00,mcc,36.63
2023-05-06T00:09:00,mcc,32.90
2023-05-06T00:10:00,mcc,31.32
2023-05-06T00:11:00,mcc,33.20
2023-05-06T00:12:00,mcc,28.92
2023-05-06T00:13:00,mcc,29.77
2023-05-06T00:14:00,mcc,29.76
2023-05-06T00:15:00,mcc,29.14
2023-05-06T00:16:00,mcc,39.22
2023-05-06T00:17:00,mcc,29.78
2023-05-06T00:18:00,mcc,32.26
2023-05-06T00:19:00,mcc,31.54
2023-05-06T00:20:00,mcc,31.15
2023-05-06T00:21:00,mcc,33.12
2023-05-06T00:22:00,mcc,36.92
2023-05-06T00:23:00,mcc,33.81
2023-05-06T00:24:00,mcc,34.75
2023-05-06T00:25:00,mcc,36.67
2023-05-06T00:26:00,mcc,33.38
2023-05-06T00:27:00,mcc,32.86
2023-05-06T00:28:00,mcc,33.38
2023-05-06T00:29:00,mcc,31.98
2023-05-06T00:30:00,mcc,31.73
2023-05-06T00:31:00,mcc,33.60
2023-05-06T00:32:00,mcc,34.93
2023-05-06T00:33:00,mcc,32.80
2023-05-06T00:34:00,mcc,32.29
2023-05-06T00:35:00,mcc,33.83
2023-05-06T00:36:00,mcc,41.57
2023-05-06T00:37:00,mcc,33.57
2023-05-06T00:38:00,mcc,32.02
2023-05-06T00:39:00,mcc,33.57
2023-05-06T00:40:00,mcc,29.15
2023-05-06T00:41:00,mcc,30.61
2023-05-06T00:42:00,mcc,33.50
2023-05-06T00:43:00,mcc,32.22
2023-05-06T00:44:00,mcc,32.32
2023-05-06T00:45:00,mcc,31.98
2023-05-06T00:46:00,mcc,31.23
2023-05-06T00:47:00,mcc,30.79
2023-05-06T00:48:00,mcc,34.24
2023-05-06T00:49:00,mcc,36.29
2023-05-06T00:50:00,mcc,33.68
2023-05-06T00:51:00,mcc,32.51
2023-05-06T00:52:00,mcc,35.59
2023-05-06T00:53:00,mcc,34.64
2023-05-06T00:54:00,mcc,32.88
2023-05-06T00:55:00,mcc,30.50
2023-05-06T00:56:00,mcc,32.34
2023-05-06T00:57:00,mcc,30.47
2023-05-06T00:58:00,mcc,31.12
2023-05-06T00:59:00,mcc,31.44
2023-05-06T01:00:00,mcc,33.95
2023-05-06T01:01:00,mcc,33.85
2023-05-06T01:02:00,mcc,33.32
2023-05-06T01:03:00,mcc,36.33
2023-05-06T01:04:00,mcc,33.75
2023-05-06T01:05:00,mcc,32.62
2023-05-06T01:06:00,mcc,33.04
2023-05-06T01:07:00,mcc,34.53
2023-05-06T01:08:00,mcc,32.98
2023-05-06T01:09:00,mcc,31.03
2023-05-06T01:10:00,mcc,34.24
2023-05-06T01:11:00,mcc,38.36
2023-05-06T01:12:00,mcc,38.12
2023-05-06T01:13:00,mcc,39.59
2023-05-06T01:14:00,mcc,37.74
2023-05-06T01:15:00,mcc,30.60
2023-05-06T01:16:00,mcc,32.89
2023-05-06T01:17:00,mcc,42.67
2023-05-06T01:18:00,mcc,34.59
2023-05-06T01:19:00,mcc,35.78
2023-05-06T01:20:00,mcc,39.53
2023-05-06T01:21:00,mcc,36.23
2023-05-06T01:22:00,mcc,37.29
2023-05-06T01:23:00,mcc,34.23
2023-05-06T01:24:00,mcc,33.06
2023-05-06T01:25:00,mcc,33.60
2023-05-06T01:26:00,mcc,32.98
2023-05-06T01:27:00,mcc,34.71
2023-05-06T01:28:00,mcc,30.38
2023-05-06T01:29:00,mcc,30.89
2023-05-06T01:30:00,mcc,35.19
2023-05-06T01:31:00,mcc,34.24
2023-05-06T01:32:00,mcc,32.42
2023-05-06T01:33:00,mcc,31.47
2023-05-06T01:34:00,mcc,34.81
2023-05-06T01:35:00,mcc,31.86
2023-05-06T01:36:00,mcc,32.55
2023-05-06T01:37:00,mcc,31.41
2023-05-06T01:38:00,mcc,35.41
2023-05-06T01:39:00,mcc,32.08
2023-05-06T01:40:00,mcc,31.89
2023-05-06T01:41:00,mcc,34.05
2023-05-06T01:42:00,mcc,31.01
2023-05-06T01:43:00,mcc,31.32
2023-05-06T01:44:00,mcc,31.42
2023-05-06T01:45:00,mcc,33.49
2023-05-06T01:46:00,mcc,36.72
2023-05-06T01:47:00,mcc,35.64
2023-05-06T01:48:00,mcc,38.50
2023-05-06T01:49:00,mcc,34.66
2023-05-06T01:50:00,mcc,34.02
2023-05-06T01:51:00,mcc,32.44
2023-05-06T01:52:00,mcc,30.65
2023-05-06T01:53:00,mcc,32.28
2023-05-06T01:54:00,mcc,33.02
2023-05-06T01:55:00,mcc,34.09
2023-05-06T01:56:00,mcc,41.25
2023-05-06T01:57:00,mcc,33.92
2023-05-06T01:58:00,mcc,33.08
2023-05-06T01:59:00,mcc,34.90
2023-05-06T02:00:00,mcc,33.01
2023-05-06T02:01:00,mcc,33.70
2023-05-06T02:02:00,mcc,36.57
2023-05-06T02:03:00,mcc,34.07
2023-05-06T02:04:00,mcc,33.38
2023-05-06T02:05:00,mcc,32.86
2023-05-06T02:06:00,mcc,34.08
2023-05-06T02:07:00,mcc,32.12
2023-05-06T02:08:00,mcc,31.48
2023-05-06T02:09:00,mcc,34.47
2023-05-06T02:10:00,mcc,31.28
2023-05-06T02:11:00,mcc,31.40
2023-05-06T02:12:00,mcc,29.65
2023-05-06T02:13:00,mcc,33.51
2023-05-06T02:14:00,mcc,32.74
2023-05-06T02:15:00,mcc,32.76
2023-05-06T02:16:00,mcc,38.15
2023-05-06T02:17:00,mcc,35.32
2023-05-06T02:18:00,mcc,36.24
2023-05-06T02:19:00,mcc,35.77
2023-05-06T02:20:00,mcc,35.28
2023-05-06T02:21:00,mcc,31.96
2023-05-06T02:22:00,mcc,31.28
2023-05-06T02:23:00,mcc,35.21
2023-05-06T02:24:00,mcc,34.06
2023-05-06T02:25:00,mcc,35.70
2023-05-06T02:26:00,mcc,44.97
2023-05-06T02:27:00,mcc,44.58
2023-05-06T02:28:00,mcc,42.83
2023-05-06T02:29:00,mcc,42.25
2023-05-06T02:30:00,mcc,33.48
2023-05-06T02:31:00,mcc,32.98
2023-05-06T02:32:00,mcc,31.98
2023-05-06T02:33:00,mcc,32.88
2023-05-06T02:34:00,mcc,33.63
2023-05-06T02:35:00,mcc,32.91
2023-05-06T02:36:00,mcc,32.07
2023-05-06T02:37:00,mcc,31.03
2023-05-06T02:38:00,mcc,32.77
2023-05-06T02:39:00,mcc,32.09
2023-05-06T02:40:00,mcc,32.42
2023-05-06T02:41:00,mcc,35.38
2023-05-06T02:42:00,mcc,33.66
2023-05-06T02:43:00,mcc,32.52
2023-05-06T02:44:00,mcc,32.68
2023-05-06T02:45:00,mcc,36.20
2023-05-06T02:46:00,mcc,34.28
2023-05-06T02:47:00,mcc,33.95
2023-05-06T02:48:00,mcc,35.56
2023-05-06T02:49:00,mcc,31.05
2023-05-06T02:50:00,mcc,30.13
2023-05-06T02:51:00,mcc,31.23
2023-05-06T02:52:00,mcc,32.83
2023-05-06T02:53:00,mcc,31.37
2023-05-06T02:54:00,mcc,39.91
2023-05-06T02:55:00,mcc,34.58
2023-05-06T02:56:00,mcc,33.08
2023-05-06T02:57:00,mcc,31.37
2023-05-06T02:58:00,mcc,31.00
2023-05-06T02:59:00,mcc,32.53
2023-05-06T03:00:00,mcc,31.02
2023-05-06T03:01:00,mcc,31.34
2023-05-06T03:02:00,mcc,31.63
2023-05-06T03:03:00,mcc,32.12
2023-05-06T03:04:00,mcc,31.04
2023-05-06T03:05:00,mcc,29.60
2023-05-06T03:06:00,mcc,31.31
2023-05-06T03:07:00,mcc,30.38
2023-05-06T03:08:00,mcc,30.64
2023-05-06T03:09:00,mcc,30.28
2023-05-06T03:10:00,mcc,30.92
2023-05-06T03:11:00,mcc,34.05
2023-05-06T03:12:00,mcc,33.49
2023-05-06T03:13:00,mcc,36.00
2023-05-06T03:14:00,mcc,34.92
2023-05-06T03:15:00,mcc,36.95
2023-05-06T03:16:00,mcc,36.05
2023-05-06T03:17:00,mcc,35.62
2023-05-06T03:18:00,mcc,34.76
2023-05-06T03:19:00,mcc,31.72
2023-05-06T03:20:00,mcc,32.25
2023-05-06T03:21:00,mcc,31.63
2023-05-06T03:22:00,mcc,29.78
2023-05-06T03:23:00,mcc,26.42
2023-05-06T03:24:00,mcc,27.18
2023-05-06T03:25:00,mcc,27.94
2023-05-06T03:26:00,mcc,28.36
2023-05-06T03:27:00,mcc,28.37
2023-05-06T03:28:00,mcc,29.53
2023-05-06T03:29:00,mcc,29.56
2023-05-06T03:30:00,mcc,30.93
2023-05-06T03:31:00,mcc,32.62
2023-05-06T03:32:00,mcc,30.42
2023-05-06T03:33:00,mcc,31.29
2023-05-06T03:34:00,mcc,32.41
2023-05-06T03:35:00,mcc,31.48
2023-05-06T03:36:00,mcc,30.68
2023-05-06T03:37:00,mcc,28.80
2023-05-06T03:38:00,mcc,30.82
2023-05-06T03:39:00,mcc,28.30
2023-05-06T03:40:00,mcc,29.99
2023-05-06T03:41:00,mcc,32.99
2023-05-06T03:42:00,mcc,32.15
2023-05-06T03:43:00,mcc,34.24
2023-05-06T03:44:00,mcc,34.47
2023-05-06T03:45:00,mcc,35.10
2023-05-06T03:46:00,mcc,30.93
2023-05-06T03:47:00,mcc,31.07
2023-05-06T03:48:00,mcc,34.97
2023-05-06T03:49:00,mcc,32.42
2023-05-06T03:50:00,mcc,32.63
2023-05-06T03:51:00,mcc,30.90
2023-05-06T03:52:00,mcc,32.09
2023-05-06T03:53:00,mcc,31.30
2023-05-06T03:54:00,mcc,31.20
2023-05-06T03:55:00,mcc,31.27
2023-05-06T03:56:00,mcc,32.71
2023-05-06T03:57:00,mcc,29.30
2023-05-06T03:58:00,mcc,30.48
2023-05-06T03:59:00,mcc,31.07
2023-05-06T04:00:00,mcc,27.66
2023-05-06T04:01:00,mcc,28.43
2023-05-06T04:02:00,mcc,28.39
2023-05-06T04:03:00,mcc,29.71
2023-05-06T04:04:00,mcc,28.06
2023-05-06T04:05:00,mcc,29.35
2023-05-06T04:06:00,mcc,31.33
2023-05-06T04:07:00,mcc,29.77
2023-05-06T04:08:00,mcc,30.07
2023-05-06T04:09:00,mcc,30.48
2023-05-06T04:10:00,mcc,29.54
2023-05-06T04:11:00,mcc,36.13
2023-05-06T04:12:00,mcc,31.13
2023-05-06T04:13:00,mcc,35.09
2023-05-06T04:14:00,mcc,33.11
2023-05-06T04:15:00,mcc,31.59
2023-05-06T04:16:00,mcc,29.42
2023-05-06T04:17:00,mcc,31.19
2023-05-06T04:18:00,mcc,31.37
2023-05-06T04:19:00,mcc,29.87
2023-05-06T04:20:00,mcc,32.28
2023-05-06T04:21:00,mcc,32.18
2023-05-06T04:22:00,mcc,32.64
2023-05-06T04:23:00,mcc,32.54
2023-05-06T04:24:00,mcc,31.45
2023-05-06T04:25:00,mcc,30.59
2023-05-06T04:26:00,mcc,31.11
2023-05-06T04:27:00,mcc,32.90
2023-05-06T04:28:00,mcc,33.13
2023-05-06T04:29:00,mcc,32.06
2023-05-06T04:30:00,mcc,33.26
2023-05-06T04:31:00,mcc,36.81
2023-05-06T04:32:00,mcc,34.73
2023-05-06T04:33:00,mcc,33.38
2023-05-06T04:34:00,mcc,31.19
2023-05-06T04:35:00,mcc,30.40
2023-05-06T04:36:00,mcc,30.37
2023-05-06T04:37:00,mcc,33.20
2023-05-06T04:38:00,mcc,35.52
2023-05-06T04:39:00,mcc,34.37
2023-05-06T04:40:00,mcc,32.64
2023-05-06T04:41:00,mcc,31.46
2023-05-06T04:42:00,mcc,31.07
2023-05-06T04:43:00,mcc,30.97
2023-05-06T04:44:00,mcc,28.93
2023-05-06T04:45:00,mcc,32.19
2023-05-06T04:46:00,mcc,29.24
2023-05-06T04:47:00,mcc,28.45
2023-05-06T04:48:00,mcc,27.71
2023-05-06T04:49:00,mcc,35.88
2023-05-06T04:50:00,mcc,26.89
2023-05-06T04:51:00,mcc,26.24
2023-05-06T04:52:00,mcc,30.71
2023-05-06T04:53:00,mcc,28.51
2023-05-06T04:54:00,mcc,30.05
2023-05-06T04:55:00,mcc,31.24
2023-05-06T04:56:00,mcc,32.23
2023-05-06T04:57:00,mcc,30.85
2023-05-06T04:58:00,mcc,30.26
2023-05-06T04:59:00,mcc,30.54
2023-05-06T05:00:00,mcc,30.70
2023-05-06T05:01:00,mcc,30.19
2023-05-06T05:02:00,mcc,30.65
2023-05-06T05:03:00,mcc,32.43
2023-05-06T05:04:00,mcc,32.35
2023-05-06T05:05:00,mcc,32.78
2023-05-06T05:06:00,mcc,34.31
2023-05-06T05:07:00,mcc,33.40
2023-05-06T05:08:00,mcc,42.29
2023-05-06T05:09:00,mcc,33.76
2023-05-06T05:10:00,mcc,34.51
2023-05-06T05:11:00,mcc,31.68
2023-05-06T05:12:00,mcc,30.04
2023-05-06T05:13:00,mcc,28.32
2023-05-06T05:14:00,mcc,28.58
2023-05-06T05:15:00,mcc,30.16
2023-05-06T05:16:00,mcc,30.95
2023-05-06T05:17:00,mcc,32.62
2023-05-06T05:18:00,mcc,30.40
2023-05-06T05:19:00,mcc,30.11
2023-05-06T05:20:00,mcc,31.55
2023-05-06T05:21:00,mcc,31.31
2023-05-06T05:22:00,mcc,30.48
2023-05-06T05:23:00,mcc,31.28
2023-05-06T05:24:00,mcc,31.91
2023-05-06T05:25:00,mcc,31.42
2023-05-06T05:26:00,mcc,31.40
2023-05-06T05:27:00,mcc,38.94
2023-05-06T05:28:00,mcc,33.15
2023-05-06T05:29:00,mcc,31.87
2023-05-06T05:30:00,mcc,30.70
2023-05-06T05:31:00,mcc,30.81
2023-05-06T05:32:00,mcc,31.72
2023-05-06T05:33:00,mcc,30.40
2023-05-06T05:34:00,mcc,28.59
2023-05-06T05:35:00,mcc,31.76
2023-05-06T05:36:00,mcc,29.05
2023-05-06T05:37:00,mcc,29.13
2023-05-06T05:38:00,mcc,30.20
2023-05-06T05:39:00,mcc,29.90
2023-05-06T05:40:00,mcc,32.35
2023-05-06T05:41:00,mcc,33.59
2023-05-06T05:42:00,mcc,35.52
2023-05-06T05:43:00,mcc,33.38
2023-05-06T05:44:00,mcc,30.95
2023-05-06T05:45:00,mcc,38.84
2023-05-06T05:46:00,mcc,30.13
2023-05-06T05:47:00,mcc,28.70
2023-05-06T05:48:00,mcc,29.88
2023-05-06T05:49:00,mcc,30.82
2023-05-06T05:50:00,mcc,31.34
2023-05-06T05:51:00,mcc,30.01
2023-05-06T05:52:00,mcc,29.60
2023-05-06T05:53:00,mcc,30.99
2023-05-06T05:54:00,mcc,29.33
2023-05-06T05:55:00,mcc,29.44
2023-05-06T05:56:00,mcc,29.43
2023-05-06T05:57:00,mcc,32.40
2023-05-06T05:58:00,mcc,38.35
2023-05-06T05:59:00,mcc,39.05
2023-05-06T06:00:00,mcc,40.17
2023-05-06T06:01:00,mcc,37.72
2023-05-06T06:02:00,mcc,29.95
2023-05-06T06:03:00,mcc,37.31
2023-05-06T06:04:00,mcc,31.33
2023-05-06T06:05:00,mcc,28.80
2023-05-06T06:06:00,mcc,27.78
2023-05-06T06:07:00,mcc,29.61
2023-05-06T06:08:00,mcc,29.77
2023-05-06T06:09:00,mcc,30.94
2023-05-06T06:10:00,mcc,27.62
2023-05-06T06:11:00,mcc,28.47
2023-05-06T06:12:00,mcc,25.75
2023-05-06T06:13:00,mcc,28.31
2023-05-06T06:14:00,mcc,28.80
2023-05-06T06:15:00,mcc,28.79
2023-05-06T06:16:00,mcc,29.51
2023-05-06T06:17:00,mcc,29.50
2023-05-06T06:18:00,mcc,30.81
2023-05-06T06:19:00,mcc,31.92
2023-05-06T06:20:00,mcc,31.94
2023-05-06T06:21:00,mcc,30.22
2023-05-06T06:22:00,mcc,32.43
2023-05-06T06:23:00,mcc,39.05
2023-05-06T06:24:00,mcc,30.28
2023-05-06T06:25:00,mcc,30.12
2023-05-06T06:26:00,mcc,33.67
2023-05-06T06:27:00,mcc,32.34
2023-05-06T06:28:00,mcc,32.79
2023-05-06T06:29:00,mcc,35.73
2023-05-06T06:30:00,mcc,32.88
2023-05-06T06:31:00,mcc,31.57
2023-05-06T06:32:00,mcc,32.59
2023-05-06T06:33:00,mcc,35.45
2023-05-06T06:34:00,mcc,31.81
2023-05-06T06:35:00,mcc,31.72
2023-05-06T06:36:00,mcc,34.62
2023-05-06T06:37:00,mcc,32.05
2023-05-06T06:38:00,mcc,30.87
2023-05-06T06:39:00,mcc,38.43
2023-05-06T06:40:00,mcc,40.33
2023-05-06T06:41:00,mcc,37.61
2023-05-06T06:42:00,mcc,36.99
2023-05-06T06:43:00,mcc,28.84
2023-05-06T06:44:00,mcc,31.62
2023-05-06T06:45:00,mcc,31.05
2023-05-06T06:46:00,mcc,30.98
2023-05-06T06:47:00,mcc,31.22
2023-05-06T06:48:00,mcc,31.57
2023-05-06T06:49:00,mcc,29.64
2023-05-06T06:50:00,mcc,29.34
2023-05-06T06:51:00,mcc,30.70
2023-05-06T06:52:00,mcc,28.89
2023-05-06T06:53:00,mcc,28.44
2023-05-06T06:54:00,mcc,30.51
2023-05-06T06:55:00,mcc,30.12
2023-05-06T06:56:00,mcc,29.13
2023-05-06T06:57:00,mcc,29.55
2023-05-06T06:58:00,mcc,32.42
2023-05-06T06:59:00,mcc,32.91
2023-05-06T07:00:00,mcc,41.01
2023-05-06T07:01:00,mcc,36.05
2023-05-06T07:02:00,mcc,39.02
2023-05-06T07:03:00,mcc,36.91
2023-05-06T07:04:00,mcc,33.31
2023-05-06T07:05:00,mcc,34.75
2023-05-06T07:06:00,mcc,32.18
2023-05-06T07:07:00,mcc,30.00
2023-05-06T07:08:00,mcc,28.48
2023-05-06T07:09:00,mcc,30.11
2023-05-06T07:10:00,mcc,28.25
2023-05-06T07:11:00,mcc,29.85
2023-05-06T07:12:00,mcc,31.28
2023-05-06T07:13:00,mcc,33.99
2023-05-06T07:14:00,mcc,31.32
2023-05-06T07:15:00,mcc,30.79
2023-05-06T07:16:00,mcc,30.30
2023-05-06T07:17:00,mcc,29.66
2023-05-06T07:18:00,mcc,29.03
2023-05-06T07:19:00,mcc,38.69
2023-05-06T07:20:00,mcc,31.20
2023-05-06T07:21:00,mcc,29.07
2023-05-06T07:22:00,mcc,29.23
2023-05-06T07:23:00,mcc,29.48
2023-05-06T07:24:00,mcc,30.36
2023-05-06T07:25:00,mcc,31.33
2023-05-06T07:26:00,mcc,31.87
2023-05-06T07:27:00,mcc,34.55
2023-05-06T07:28:00,mcc,31.11
2023-05-06T07:29:00,mcc,32.77
2023-05-06T07:30:00,mcc,31.99
2023-05-06T07:31:00,mcc,33.84
2023-05-06T07:32:00,mcc,32.59
2023-05-06T07:33:00,mcc,30.39
2023-05-06T07:34:00,mcc,37.09
2023-05-06T07:35:00,mcc,42.59
2023-05-06T07:36:00,mcc,39.58
2023-05-06T07:37:00,mcc,40.35
2023-05-06T07:38:00,mcc,46.67
2023-05-06T07:39:00,mcc,39.77
2023-05-06T07:40:00,mcc,39.05
2023-05-06T07:41:00,mcc,40.72
2023-05-06T07:42:00,mcc,43.77
2023-05-06T07:43:00,mcc,40.33
2023-05-06T07:44:00,mcc,39.66
2023-05-06T07:45:00,mcc,40.67
2023-05-06T07:46:00,mcc,40.80
2023-05-06T07:47:00,mcc,40.73
2023-05-06T07:48:00,mcc,41.24
2023-05-06T07:49:00,mcc,42.82
2023-05-06T07:50:00,mcc,40.76
2023-05-06T07:51:00,mcc,41.46
2023-05-06T07:52:00,mcc,41.81
2023-05-06T07:53:00,mcc,42.26
2023-05-06T07:54:00,mcc,42.69
2023-05-06T07:55:00,mcc,42.90
2023-05-06T07:56:00,mcc,41.11
2023-05-06T07:57:00,mcc,41.41
2023-05-06T07:58:00,mcc,41.27
2023-05-06T07:59:00,mcc,41.28
2023-05-06T08:00:00,mcc,43.43
2023-05-06T08:01:00,mcc,40.76
2023-05-06T08:02:00,mcc,39.63
2023-05-06T08:03:00,mcc,39.13
2023-05-06T08:04:00,mcc,39.62
2023-05-06T08:05:00,mcc,38.11
2023-05-06T08:06:00,mcc,38.16
2023-05-06T08:07:00,mcc,39.70
2023-05-06T08:08:00,mcc,39.01
2023-05-06T08:09:00,mcc,38.96
2023-05-06T08:10:00,mcc,38.96
2023-05-06T08:11:00,mcc,39.41
2023-05-06T08:12:00,mcc,38.85
2023-05-06T08:13:00,mcc,38.51
2023-05-06T08:14:00,mcc,39.35
2023-05-06T08:15:00,mcc,38.58
2023-05-06T08:16:00,mcc,47.23
2023-05-06T08:17:00,mcc,37.88
2023-05-06T08:18:00,mcc,40.48
2023-05-06T08:19:00,mcc,38.07
2023-05-06T08:20:00,mcc,39.14
2023-05-06T08:21:00,mcc,40.39
2023-05-06T08:22:00,mcc,41.51
2023-05-06T08:23:00,mcc,40.72
2023-05-06T08:24:00,mcc,40.49
2023-05-06T08:25:00,mcc,40.80
2023-05-06T08:26:00,mcc,36.93
2023-05-06T08:27:00,mcc,32.91
2023-05-06T08:28:00,mcc,32.66
2023-05-06T08:29:00,mcc,34.33
2023-05-06T08:30:00,mcc,31.68
2023-05-06T08:31:00,mcc,35.29
2023-05-06T08:32:00,mcc,35.35
2023-05-06T08:33:00,mcc,35.45
2023-05-06T08:34:00,mcc,31.78
2023-05-06T08:35:00,mcc,33.61
2023-05-06T08:36:00,mcc,29.84
2023-05-06T08:37:00,mcc,28.20
2023-05-06T08:38:00,mcc,28.28
2023-05-06T08:39:00,mcc,31.53
2023-05-06T08:40:00,mcc,33.59
2023-05-06T08:41:00,mcc,37.98
2023-05-06T08:42:00,mcc,37.44
2023-05-06T08:43:00,mcc,28.42
2023-05-06T08:44:00,mcc,32.93
2023-05-06T08:45:00,mcc,31.93
2023-05-06T08:46:00,mcc,32.99
2023-05-06T08:47:00,mcc,35.73
2023-05-06T08:48:00,mcc,33.09
2023-05-06T08:49:00,mcc,30.19
2023-05-06T08:50:00,mcc,29.48
2023-05-06T08:51:00,mcc,29.31
2023-05-06T08:52:00,mcc,28.03
2023-05-06T08:53:00,mcc,26.00
2023-05-06T08:54:00,mcc,26.48
2023-05-06T08:55:00,mcc,29.85
2023-05-06T08:56:00,mcc,30.76
2023-05-06T08:57:00,mcc,32.27
2023-05-06T08:58:00,mcc,33.26
2023-05-06T08:59:00,mcc,31.54
2023-05-06T09:00:00,mcc,31.19
2023-05-06T09:01:00,mcc,31.82
2023-05-06T09:02:00,mcc,32.24
2023-05-06T09:03:00,mcc,28.81
2023-05-06T09:04:00,mcc,29.10
2023-05-06T09:05:00,mcc,29.55
2023-05-06T09:06:00,mcc,27.20
2023-05-06T09:07:00,mcc,28.64
2023-05-06T09:08:00,mcc,28.21
2023-05-06T09:09:00,mcc,28.81
2023-05-06T09:10:00,mcc,28.30
2023-05-06T09:11:00,mcc,27.69
2023-05-06T09:12:00,mcc,28.40
2023-05-06T09:13:00,mcc,28.68
2023-05-06T09:14:00,mcc,28.89
2023-05-06T09:15:00,mcc,29.10
2023-05-06T09:16:00,mcc,29.62
2023-05-06T09:17:00,mcc,27.55
2023-05-06T09:18:00,mcc,29.22
2023-05-06T09:19:00,mcc,30.92
2023-05-06T09:20:00,mcc,31.47
2023-05-06T09:21:00,mcc,30.75
2023-05-06T09:22:00,mcc,31.25
2023-05-06T09:23:00,mcc,36.57
2023-05-06T09:24:00,mcc,34.80
2023-05-06T09:25:00,mcc,35.06
2023-05-06T09:26:00,mcc,32.76
2023-05-06T09:27:00,mcc,33.52
2023-05-06T09:28:00,mcc,31.17
2023-05-06T09:29:00,mcc,27.61
2023-05-06T09:30:00,mcc,26.23
2023-05-06T09:31:00,mcc,29.11
2023-05-06T09:32:00,mcc,28.32
2023-05-06T09:33:00,mcc,28.36
2023-05-06T09:34:00,mcc,39.41
2023-05-06T09:35:00,mcc,28.19
2023-05-06T09:36:00,mcc,28.47
2023-05-06T09:37:00,mcc,28.25
2023-05-06T09:38:00,mcc,30.09
2023-05-06T09:39:00,mcc,28.40
2023-05-06T09:40:00,mcc,29.83
2023-05-06T09:41:00,mcc,30.73
2023-05-06T09:42:00,mcc,29.69
2023-05-06T09:43:00,mcc,29.98
2023-05-06T09:44:00,mcc,29.04
2023-05-06T09:45:00,mcc,29.69
2023-05-06T09:46:00,mcc,28.44
2023-05-06T09:47:00,mcc,28.17
2023-05-06T09:48:00,mcc,27.78
2023-05-06T09:49:00,mcc,31.44
2023-05-06T09:50:00,mcc,28.57
2023-05-06T09:51:00,mcc,28.49
2023-05-06T09:52:00,mcc,33.44
2023-05-06T09:53:00,mcc,30.91
2023-05-06T09:54:00,mcc,41.35
2023-05-06T09:55:00,mcc,32.96
2023-05-06T09:56:00,mcc,35.25
2023-05-06T09:57:00,mcc,33.27
2023-05-06T09:58:00,mcc,32.59
2023-05-06T09:59:00,mcc,30.25
2023-05-06T10:00:00,mcc,32.72
2023-05-06T10:01:00,mcc,27.43
2023-05-06T10:02:00,mcc,26.86
2023-05-06T10:03:00,mcc,29.03
2023-05-06T10:04:00,mcc,27.03
2023-05-06T10:05:00,mcc,27.95
2023-05-06T10:06:00,mcc,27.71
2023-05-06T10:07:00,mcc,31.06
2023-05-06T10:08:00,mcc,27.83
2023-05-06T10:09:00,mcc,27.05
2023-05-06T10:10:00,mcc,27.71
2023-05-06T10:11:00,mcc,25.77
2023-05-06T10:12:00,mcc,26.09
2023-05-06T10:13:00,mcc,26.33
2023-05-06T10:14:00,mcc,28.11
2023-05-06T10:15:00,mcc,27.10
2023-05-06T10:16:00,mcc,33.59
2023-05-06T10:17:00,mcc,35.09
2023-05-06T10:18:00,mcc,38.02
2023-05-06T10:19:00,mcc,36.08
2023-05-06T10:20:00,mcc,31.40
2023-05-06T10:21:00,mcc,32.73
2023-05-06T10:22:00,mcc,32.73
2023-05-06T10:23:00,mcc,32.37
2023-05-06T10:24:00,mcc,32.46
2023-05-06T10:25:00,mcc,35.18
2023-05-06T10:26:00,mcc,33.78
2023-05-06T10:27:00,mcc,31.96
2023-05-06T10:28:00,mcc,30.16
2023-05-06T10:29:00,mcc,32.45
2023-05-06T10:30:00,mcc,29.04
2023-05-06T10:31:00,mcc,30.49
2023-05-06T10:32:00,mcc,28.67
2023-05-06T10:33:00,mcc,31.49
2023-05-06T10:34:00,mcc,31.33
2023-05-06T10:35:00,mcc,30.60
2023-05-06T10:36:00,mcc,33.16
2023-05-06T10:37:00,mcc,30.51
2023-05-06T10:38:00,mcc,31.00
2023-05-06T10:39:00,mcc,31.98
2023-05-06T10:40:00,mcc,32.60
2023-05-06T10:41:00,mcc,38.61
2023-05-06T10:42:00,mcc,30.65
2023-05-06T10:43:00,mcc,31.30
2023-05-06T10:44:00,mcc,33.12
2023-05-06T10:45:00,mcc,29.70
2023-05-06T10:46:00,mcc,29.43
2023-05-06T10:47:00,mcc,33.07
2023-05-06T10:48:00,mcc,30.41
2023-05-06T10:49:00,mcc,32.93
2023-05-06T10:50:00,mcc,32.05
2023-05-06T10:51:00,mcc,33.41
2023-05-06T10:52:00,mcc,39.08
2023-05-06T10:53:00,mcc,47.64
2023-05-06T10:54:00,mcc,38.77
2023-05-06T10:55:00,mcc,41.87
2023-05-06T10:56:00,mcc,37.48
2023-05-06T10:57:00,mcc,36.83
2023-05-06T10:58:00,mcc,47.11
2023-05-06T10:59:00,mcc,48.22
2023-05-06T11:00:00,mcc,46.55
2023-05-06T11:01:00,mcc,54.40
2023-05-06T11:02:00,mcc,44.65
2023-05-06T11:03:00,mcc,42.34
2023-05-06T11:04:00,mcc,42.30
2023-05-06T11:05:00,mcc,43.27
2023-05-06T11:06:00,mcc,45.18
2023-05-06T11:07:00,mcc,43.38
2023-05-06T11:08:00,mcc,44.90
2023-05-06T11:09:00,mcc,46.48
2023-05-06T11:10:00,mcc,47.99
2023-05-06T11:11:00,mcc,54.03
2023-05-06T11:12:00,mcc,46.12
2023-05-06T11:13:00,mcc,46.73
2023-05-06T11:14:00,mcc,45.34
2023-05-06T11:15:00,mcc,45.41
2023-05-06T11:16:00,mcc,45.39
2023-05-06T11:17:00,mcc,47.00
2023-05-06T11:18:00,mcc,46.85
2023-05-06T11:19:00,mcc,44.20
2023-05-06T11:20:00,mcc,43.36
2023-05-06T11:21:00,mcc,44.83
2023-05-06T11:22:00,mcc,42.62
2023-05-06T11:23:00,mcc,42.47
2023-05-06T11:24:00,mcc,43.09
2023-05-06T11:25:00,mcc,44.90
2023-05-06T11:26:00,mcc,40.63
2023-05-06T11:27:00,mcc,49.78
2023-05-06T11:28:00,mcc,51.77
2023-05-06T11:29:00,mcc,43.10
2023-05-06T11:30:00,mcc,43.11
2023-05-06T11:31:00,mcc,43.18
2023-05-06T11:32:00,mcc,45.63
2023-05-06T11:33:00,mcc,41.98
2023-05-06T11:34:00,mcc,42.16
2023-05-06T11:35:00,mcc,42.16
2023-05-06T11:36:00,mcc,40.86
2023-05-06T11:37:00,mcc,40.86
2023-05-06T11:38:00,mcc,39.58
2023-05-06T11:39:00,mcc,44.03
2023-05-06T11:40:00,mcc,44.68
2023-05-06T11:41:00,mcc,46.30
2023-05-06T11:42:00,mcc,46.79
2023-05-06T11:43:00,mcc,49.84
2023-05-06T11:44:00,mcc,46.92
2023-05-06T11:45:00,mcc,46.73
2023-05-06T11:46:00,mcc,46.25
2023-05-06T11:47:00,mcc,48.75
2023-05-06T11:48:00,mcc,48.47
2023-05-06T11:49:00,mcc,43.03
2023-05-06T11:50:00,mcc,51.00
2023-05-06T11:51:00,mcc,44.61
2023-05-06T11:52:00,mcc,44.41
2023-05-06T11:53:00,mcc,43.50
2023-05-06T11:54:00,mcc,44.69
2023-05-06T11:55:00,mcc,41.62
2023-05-06T11:56:00,mcc,41.36
2023-05-06T11:57:00,mcc,39.78
2023-05-06T11:58:00,mcc,41.81
2023-05-06T11:59:00,mcc,38.97
2023-05-06T12:00:00,mcc,37.56
2023-05-06T12:01:00,mcc,40.13
2023-05-06T12:02:00,mcc,40.99
2023-05-06T12:03:00,mcc,43.04
2023-05-06T12:04:00,mcc,43.19
2023-05-06T12:05:00,mcc,45.20
2023-05-06T12:06:00,mcc,43.54
2023-05-06T12:07:00,mcc,42.61
2023-05-06T12:08:00,mcc,42.21
2023-05-06T12:09:00,mcc,53.16
2023-05-06T12:10:00,mcc,42.17
2023-05-06T12:11:00,mcc,43.91
2023-05-06T12:12:00,mcc,43.91
2023-05-06T12:13:00,mcc,46.20
2023-05-06T12:14:00,mcc,44.11
2023-05-06T12:15:00,mcc,47.91
2023-05-06T12:16:00,mcc,47.31
2023-05-06T12:17:00,mcc,48.56
2023-05-06T12:18:00,mcc,49.01
2023-05-06T12:19:00,mcc,50.19
2023-05-06T12:20:00,mcc,50.76
2023-05-06T12:21:00,mcc,47.65
2023-05-06T12:22:00,mcc,44.05
2023-05-06T12:23:00,mcc,42.85
2023-05-06T12:24:00,mcc,45.18
2023-05-06T12:25:00,mcc,43.39
2023-05-06T12:26:00,mcc,45.35
2023-05-06T12:27:00,mcc,46.92
2023-05-06T12:28:00,mcc,45.70
2023-05-06T12:29:00,mcc,53.76
2023-05-06T12:30:00,mcc,45.96
2023-05-06T12:31:00,mcc,45.90
2023-05-06T12:32:00,mcc,43.07
2023-05-06T12:33:00,mcc,45.15
2023-05-06T12:34:00,mcc,45.02
2023-05-06T12:35:00,mcc,49.14
2023-05-06T12:36:00,mcc,46.34
2023-05-06T12:37:00,mcc,45.81
2023-05-06T12:38:00,mcc,47.82
2023-05-06T12:39:00,mcc,45.40
2023-05-06T12:40:00,mcc,43.77
2023-05-06T12:41:00,mcc,45.34
2023-05-06T12:42:00,mcc,49.53
2023-05-06T12:43:00,mcc,46.43
2023-05-06T12:44:00,mcc,47.48
2023-05-06T12:45:00,mcc,47.22
2023-05-06T12:46:00,mcc,50.38
2023-05-06T12:47:00,mcc,48.70
2023-05-06T12:48:00,mcc,55.99
2023-05-06T12:49:00,mcc,46.70
2023-05-06T12:50:00,mcc,47.80
2023-05-06T12:51:00,mcc,48.43
2023-05-06T12:52:00,mcc,48.88
2023-05-06T12:53:00,mcc,52.14
2023-05-06T12:54:00,mcc,52.02
2023-05-06T12:55:00,mcc,51.27
2023-05-06T12:56:00,mcc,50.27
2023-05-06T12:57:00,mcc,50.64
2023-05-06T12:58:00,mcc,49.56
2023-05-06T12:59:00,mcc,50.22
2023-05-06T13:00:00,mcc,47.21
2023-05-06T13:01:00,mcc,50.34
2023-05-06T13:02:00,mcc,46.39
2023-05-06T13:03:00,mcc,46.56
2023-05-06T13:04:00,mcc,48.03
2023-05-06T13:05:00,mcc,45.19
2023-05-06T13:06:00,mcc,47.28
2023-05-06T13:07:00,mcc,54.65
2023-05-06T13:08:00,mcc,48.53
2023-05-06T13:09:00,mcc,47.12
2023-05-06T13:10:00,mcc,51.13
2023-05-06T13:11:00,mcc,50.58
2023-05-06T13:12:00,mcc,50.19
2023-05-06T13:13:00,mcc,49.01
2023-05-06T13:14:00,mcc,49.66
2023-05-06T13:15:00,mcc,47.33
2023-05-06T13:16:00,mcc,47.51
2023-05-06T13:17:00,mcc,49.13
2023-05-06T13:18:00,mcc,45.35